Regional Weather Roundup
Issued by NWS

Home | Current Version | Previous Version | Graphics & Text | Print | Product List | Glossary On
Versions: 1 2 3 4 5 6 7 8 9 10 11 12 13 14 15 16 17 18 19 20 21 22 23 24 25 26 27 28 29 30 31 32 33 34 35 36 37 38 39 40 41 42 43 44 45 46 47 48 49 50
000
ASUS43 KOAX 252202
RWRNE

WEATHER ROUNDUP FOR NEBRASKA
NATIONAL WEATHER SERVICE OMAHA NE
500 PM CDT MON JUL 25 2016

NOTES: SATELLITE DATA IS BEING USED TO AUGMENT CLOUD COVER ABOVE
       12000 FEET.
       "FAIR" INDICATES FEW OR NO CLOUDS BELOW 12,000 FEET WITH NO
       SIGNIFICANT WEATHER AND/OR OBSTRUCTIONS TO VISIBILITY.

  * THESE STATIONS DO NOT REPORT WEATHER SUCH AS RAIN...SNOW OR FOG.

NEZ001>004-019>022-054>056-252300-
NEBRASKA PANHANDLE

CITY           SKY/WX    TMP DP  RH WIND       PRES   REMARKS
SCOTTSBLUFF    SUNNY     94  54  25 S13       30.05F HX  92
ALLIANCE       SUNNY     87  59  38 S21G28    30.08F
CHADRON        SUNNY     93  54  26 S21G26    30.01F HX  91
SIDNEY         SUNNY     88  59  37 S20G31    30.13F
$$

NEZ057>060-069>072-079>082-252300-
SOUTHWEST NEBRASKA

CITY           SKY/WX    TMP DP  RH WIND       PRES   REMARKS
NORTH PLATTE   SUNNY     86  66  51 S12       30.08F
IMPERIAL       MOSUNNY   89  57  33 S18       30.09F
LEXINGTON      SUNNY     85  66  52 SE10      30.08F
MCCOOK         MOSUNNY   89  65  44 SE15G23   30.07F HX  91
OGALLALA       SUNNY     89  57  34 SE16      30.08F
$$

NEZ005>010-023>029-035>040-094-252300-
NORTH CENTRAL NEBRASKA

CITY           SKY/WX    TMP DP  RH WIND       PRES   REMARKS
VALENTINE      SUNNY     91  55  29 S16G25    30.06F
AINSWORTH      SUNNY     88  55  32 SE20      30.08F
BROKEN BOW     SUNNY     84  58  40 SE12      30.09F
O`NEILL        SUNNY     90  48  23 S14       30.08F
ORD            SUNNY     86  59  39 SE13      30.07F
THEDFORD       SUNNY     88  61  39 S17G23    30.10F
$$

NEZ041-046>049-061>064-073>077-083>087-252300-
SOUTH CENTRAL NEBRASKA

CITY           SKY/WX    TMP DP  RH WIND       PRES   REMARKS
GRAND ISLAND   SUNNY     85  61  44 SE9       30.08F
AURORA         SUNNY     84  62  47 SE6       30.07F
HASTINGS       SUNNY     87  55  33 S10       30.08F
HEBRON         SUNNY     87  59  38 NE7       30.05F
HOLDREGE       SUNNY     85  64  49 SE12      30.08F
KEARNEY *      SUNNY     86  64  48 SE13      30.09F
YORK           SUNNY     82  64  54 E8        30.07F
$$

NEZ011>018-030>034-042>045-252300-
NORTHEAST NEBRASKA

CITY           SKY/WX    TMP DP  RH WIND       PRES   REMARKS
NORFOLK        SUNNY     85  57  38 SE8       30.08F
ALBION         SUNNY     83  62  47 SE7       30.09F
BLAIR          SUNNY     86  62  45 NE6       30.07F
FREMONT        SUNNY     86  62  44 CALM      30.06F
TEKAMAH        SUNNY     86  61  42 VRB5      30.06F
WAYNE          SUNNY     83  65  54 S6        30.09F
$$

NEZ050>053-065>068-078-088>093-252300-
SOUTHEAST NEBRASKA

CITY           SKY/WX    TMP DP  RH WIND       PRES   REMARKS
LINCOLN        SUNNY     87  62  43 NE10      30.06F
OMAHA EPPLEY   MOSUNNY   88  63  43 NE10      30.05F
BEATRICE       SUNNY     87  59  39 NE7       30.05F
FALLS CITY     SUNNY     86  68  54 NE7       30.03F
NEBRASKA CITY  SUNNY     83  66  55 NE10      30.05F
PLATTSMOUTH    SUNNY     86  64  48 N6        30.06S
$$

NEZ044-045-051>053-067-252300-
OMAHA AREA

CITY           SKY/WX    TMP DP  RH WIND       PRES   REMARKS
OMAHA EPPLEY   MOSUNNY   88  63  43 NE10      30.05F
BLAIR          SUNNY     86  62  45 NE6       30.07F
FREMONT        SUNNY     86  62  44 CALM      30.06F
MILLARD        SUNNY     88  58  36 CALM      30.05F
OFFUTT AFB     SUNNY     88  64  45 N7        30.05F
PLATTSMOUTH    SUNNY     86  64  48 N6        30.06S
WAHOO          FAIR      85  63  47 NE3       30.07F
$$



USA.gov is the U.S. government's official web portal to all federal, state and local government web resources and services.